Meteo pe oră la Aavasaksa

Astăzi, 15 Iunie, Marţi

Timp Temperatura Precipitaţii Vânt Presiune Umiditate
00:00 +9°C° 0.1 mm 2 m/s 741 mmHg 93%
01:00 +9°C° 0.1 mm 2 m/s 740 mmHg 94%
02:00 +10°C° 0 mm 1 m/s 738 mmHg 97%
03:00 +9°C° 3.4 mm 2 m/s 737 mmHg 97%
04:00 +9°C° 3.4 mm 3 m/s 736 mmHg 98%
05:00 +9°C° 3.4 mm 3 m/s 735 mmHg 98%
06:00 +9°C° 1.5 mm 3 m/s 734 mmHg 97%
07:00 +8°C° 1.5 mm 4 m/s 734 mmHg 96%
08:00 +8°C° 1.5 mm 4 m/s 734 mmHg 95%
09:00 +8°C° 1.3 mm 4 m/s 734 mmHg 95%
10:00 +8°C° 1.3 mm 4 m/s 735 mmHg 95%
11:00 +8°C° 1.3 mm 5 m/s 735 mmHg 94%
12:00 +8°C° 0.3 mm 5 m/s 736 mmHg 93%
13:00 +8°C° 0.3 mm 5 m/s 737 mmHg 91%
14:00 +8°C° 0.3 mm 5 m/s 738 mmHg 90%
15:00 +8°C° 0.3 mm 4 m/s 739 mmHg 87%
16:00 +10°C° 0.3 mm 3 m/s 740 mmHg 85%
17:00 +10°C° 0.3 mm 2 m/s 741 mmHg 82%
18:00 +10°C° 0.5 mm 2 m/s 741 mmHg 84%
19:00 +11°C° 0.5 mm 1 m/s 742 mmHg 86%
20:00 +11°C° 0.5 mm 1 m/s 743 mmHg 88%
21:00 +10°C° 1.4 mm 1 m/s 743 mmHg 90%
22:00 +10°C° 1.4 mm 1 m/s 744 mmHg 92%
23:00 +9°C° 1.4 mm 1 m/s 745 mmHg 94%

Mâine, 16 Iunie, Miercuri

Timp Temperatura Precipitaţii Vânt Presiune Umiditate
00:00 +9°C° 0.2 mm 1 m/s 745 mmHg 94%
01:00 +8°C° 0.2 mm 1 m/s 746 mmHg 94%
02:00 +8°C° 0.2 mm 1 m/s 747 mmHg 94%
03:00 +8°C° 0.2 mm 1 m/s 747 mmHg 92%
04:00 +8°C° 0.2 mm 1 m/s 747 mmHg 91%
05:00 +9°C° 0.2 mm 1 m/s 748 mmHg 89%
06:00 +8°C° 0.1 mm 2 m/s 748 mmHg 82%
07:00 +9°C° 0.1 mm 2 m/s 748 mmHg 75%
08:00 +9°C° 0.1 mm 3 m/s 749 mmHg 68%
09:00 +10°C° 0 mm 3 m/s 749 mmHg 59%
10:00 +12°C° 0 mm 3 m/s 749 mmHg 49%
11:00 +13°C° 0 mm 3 m/s 749 mmHg 40%
12:00 +13°C° 0 mm 3 m/s 749 mmHg 38%
13:00 +14°C° 0 mm 3 m/s 749 mmHg 37%
14:00 +14°C° 0 mm 3 m/s 749 mmHg 35%
15:00 +16°C° 0 mm 3 m/s 749 mmHg 34%
16:00 +16°C° 0 mm 3 m/s 749 mmHg 34%
17:00 +16°C° 0 mm 3 m/s 749 mmHg 33%
18:00 +14°C° 0 mm 3 m/s 750 mmHg 38%
19:00 +14°C° 0 mm 3 m/s 750 mmHg 43%
20:00 +14°C° 0 mm 2 m/s 751 mmHg 48%
21:00 +12°C° 0 mm 2 m/s 751 mmHg 55%
22:00 +10°C° 0 mm 1 m/s 752 mmHg 61%
23:00 +8°C° 0 mm 1 m/s 752 mmHg 68%

Poimâine, 17 Iunie, Joi

Timp Temperatura Precipitaţii Vânt Presiune Umiditate
00:00 +7°C° 0 mm 0 m/s 753 mmHg 69%
01:00 +6°C° 0 mm 0 m/s 753 mmHg 70%
02:00 +6°C° 0 mm 0 m/s 753 mmHg 70%
03:00 +7°C° 0 mm 0 m/s 753 mmHg 67%
04:00 +9°C° 0 mm 1 m/s 754 mmHg 64%
05:00 +10°C° 0 mm 1 m/s 754 mmHg 60%
06:00 +10°C° 0 mm 2 m/s 754 mmHg 57%
07:00 +12°C° 0 mm 2 m/s 754 mmHg 55%
08:00 +12°C° 0 mm 3 m/s 754 mmHg 52%
09:00 +12°C° 0.2 mm 3 m/s 754 mmHg 61%
10:00 +11°C° 0.2 mm 4 m/s 754 mmHg 70%
11:00 +10°C° 0.2 mm 4 m/s 754 mmHg 80%
12:00 +11°C° 0.4 mm 4 m/s 754 mmHg 80%
13:00 +11°C° 0.4 mm 4 m/s 754 mmHg 81%
14:00 +11°C° 0.4 mm 4 m/s 754 mmHg 81%
15:00 +12°C° 0 mm 3 m/s 753 mmHg 75%
16:00 +13°C° 0 mm 3 m/s 753 mmHg 69%
17:00 +16°C° 0 mm 2 m/s 753 mmHg 62%
18:00 +16°C° 0 mm 2 m/s 753 mmHg 65%
19:00 +16°C° 0 mm 2 m/s 753 mmHg 68%
20:00 +16°C° 0 mm 2 m/s 753 mmHg 71%
21:00 +15°C° 0 mm 2 m/s 753 mmHg 75%
22:00 +14°C° 0 mm 2 m/s 753 mmHg 79%
23:00 +12°C° 0 mm 2 m/s 753 mmHg 83%

18 Iunie, Vineri

Timp Temperatura Precipitaţii Vânt Presiune Umiditate
00:00 +12°C° 0 mm 1 m/s 752 mmHg 87%
01:00 +11°C° 0 mm 1 m/s 752 mmHg 90%
02:00 +10°C° 0 mm 0 m/s 752 mmHg 93%
03:00 +11°C° 0.6 mm 1 m/s 751 mmHg 94%
04:00 +11°C° 0.6 mm 1 m/s 751 mmHg 95%
05:00 +10°C° 0.6 mm 2 m/s 750 mmHg 96%
06:00 +12°C° 0.1 mm 1 m/s 750 mmHg 94%
07:00 +12°C° 0.1 mm 1 m/s 750 mmHg 93%
08:00 +13°C° 0.1 mm 1 m/s 750 mmHg 91%
09:00 +14°C° 0 mm 1 m/s 749 mmHg 86%
10:00 +15°C° 0 mm 1 m/s 749 mmHg 81%
11:00 +18°C° 0 mm 1 m/s 749 mmHg 76%
12:00 +18°C° 0 mm 1 m/s 748 mmHg 77%
13:00 +18°C° 0 mm 1 m/s 748 mmHg 78%
14:00 +17°C° 0 mm 2 m/s 748 mmHg 79%
15:00 +15°C° 0.9 mm 2 m/s 748 mmHg 85%
16:00 +14°C° 0.9 mm 2 m/s 748 mmHg 91%
17:00 +12°C° 0.9 mm 3 m/s 748 mmHg 97%
18:00 +12°C° 0.3 mm 3 m/s 748 mmHg 96%
19:00 +12°C° 0.3 mm 3 m/s 749 mmHg 95%
20:00 +12°C° 0.3 mm 3 m/s 749 mmHg 94%
21:00 +12°C° 0.1 mm 3 m/s 750 mmHg 94%
22:00 +12°C° 0.1 mm 2 m/s 751 mmHg 93%
23:00 +10°C° 0.1 mm 2 m/s 752 mmHg 92%

19 Iunie, Sâmbătă

Timp Temperatura Precipitaţii Vânt Presiune Umiditate
00:00 +9°C° 0 mm 2 m/s 752 mmHg 93%
01:00 +8°C° 0 mm 2 m/s 753 mmHg 93%
02:00 +7°C° 0 mm 2 m/s 754 mmHg 93%
03:00 +8°C° 0 mm 2 m/s 754 mmHg 90%
04:00 +9°C° 0 mm 2 m/s 755 mmHg 87%
05:00 +11°C° 0 mm 1 m/s 755 mmHg 85%
06:00 +12°C° 0 mm 2 m/s 756 mmHg 76%
07:00 +13°C° 0 mm 2 m/s 756 mmHg 67%
08:00 +14°C° 0 mm 2 m/s 757 mmHg 58%
09:00 +15°C° 0 mm 2 m/s 757 mmHg 52%
10:00 +17°C° 0 mm 2 m/s 757 mmHg 46%
11:00 +18°C° 0 mm 2 m/s 757 mmHg 40%
12:00 +20°C° 0 mm 1 m/s 758 mmHg 39%
13:00 +20°C° 0 mm 1 m/s 758 mmHg 37%
14:00 +21°C° 0 mm 1 m/s 758 mmHg 36%
15:00 +21°C° 0 mm 1 m/s 758 mmHg 36%
16:00 +21°C° 0 mm 1 m/s 758 mmHg 36%
17:00 +21°C° 0 mm 1 m/s 758 mmHg 36%
18:00 +20°C° 0 mm 1 m/s 758 mmHg 44%
19:00 +18°C° 0 mm 2 m/s 758 mmHg 51%
20:00 +16°C° 0 mm 2 m/s 758 mmHg 59%
21:00 +15°C° 0 mm 1 m/s 758 mmHg 64%
22:00 +13°C° 0 mm 1 m/s 758 mmHg 69%
23:00 +12°C° 0 mm 1 m/s 758 mmHg 75%

20 Iunie, Duminică

Timp Temperatura Precipitaţii Vânt Presiune Umiditate
00:00 +11°C° 0 mm 1 m/s 758 mmHg 75%
01:00 +11°C° 0 mm 1 m/s 758 mmHg 76%
02:00 +10°C° 0 mm 1 m/s 758 mmHg 77%
03:00 +11°C° 0 mm 1 m/s 758 mmHg 75%
04:00 +12°C° 0 mm 1 m/s 757 mmHg 73%
05:00 +13°C° 0 mm 1 m/s 757 mmHg 71%
06:00 +12°C° 0.3 mm 1 m/s 756 mmHg 78%
07:00 +12°C° 0.3 mm 1 m/s 756 mmHg 84%
08:00 +10°C° 0.3 mm 2 m/s 755 mmHg 90%
09:00 +10°C° 1.7 mm 2 m/s 754 mmHg 92%
10:00 +11°C° 1.7 mm 3 m/s 754 mmHg 94%
11:00 +11°C° 1.7 mm 4 m/s 753 mmHg 96%
12:00 +11°C° 0.1 mm 3 m/s 752 mmHg 95%
13:00 +12°C° 0.1 mm 3 m/s 752 mmHg 94%
14:00 +12°C° 0.1 mm 3 m/s 751 mmHg 94%
15:00 +13°C° 0 mm 3 m/s 751 mmHg 93%
16:00 +13°C° 0 mm 3 m/s 751 mmHg 93%
17:00 +15°C° 0 mm 2 m/s 750 mmHg 92%
18:00 +14°C° 0 mm 3 m/s 751 mmHg 89%
19:00 +14°C° 0 mm 3 m/s 751 mmHg 86%
20:00 +13°C° 0 mm 3 m/s 751 mmHg 83%
21:00 +14°C° 0 mm 2 m/s 751 mmHg 85%
22:00 +13°C° 0 mm 2 m/s 752 mmHg 87%
23:00 +12°C° 0 mm 1 m/s 752 mmHg 89%
Arată mai mult

Formular de consimțământ

Meteoprog și furnizorii noștri de servicii pot stoca și accesa date personale, precum cookies, identificatori de dispozitiv sau alte tehnologii similare pe dispozitivul dumneavoastră și procesa astfel de date pentru a personaliza conținutul și reclamele, dar și pentru a oferi caracteristici de social media și pentru a analiza traficul.

  • Stocarea și/sau accesarea informațiilor pe dispozitivul dumneavoastră

    Cookies, identificatori de dispozitiv sau alte informații pot fi stocate sau accesate pe dispozitiv în scopurile indicate mai sus.

  • Reclame și conținut personalizat, evaluarea reclamelor și a conținutului, informații despre audiențe și dezvoltarea produselor

    Reclamele și conținutul pot fi personalizate pe baza unui profil. Pot fi adăugate date suplimentare pentru a personaliza mai bine reclamele și conținutul. Performanța reclamelor și conținutului poate fi măsurată. Pot fi obținute informații despre utilizatorii care au văzut reclamele și conținutul. Aceste date pot fi utilizate pentru a dezvolta sau îmbunătăți experiența utilizatorilor, sistemele și software-ul.

Dând clic pe ‘Sunt de acord’, permiteți utilizarea cookie-urilor menționate, a identificatorilor de dispozitiv, balizelor web sau altor tehnologii similare. Setările pot fi modificate din browser-ul dispozitivului dumneavoastră.

În anumite scopuri, interesele legitime pot prima asupra consimțământului. Puteți citi mai multe informații în acest sens în Politica privind Confidențialitatea Datelor și Cookie.